• En España
  • Lista de países
  • Para 7 días
  • Temperatura del agua
  • Mapa Satelital
  • El tiempo en el mapa
  • Informadores
  • user-avatar
    Iniciar sesión

    Tiempo cada hora Bolshaya Cilna

    Hoy, 18 Agosto, Sábado

    Tiempo Temperatura Precipitaciones Viento Presión Humedad
    00:00 +14°C° 0 mm 2 mps 756 mmHg 79%
    01:00 +13°C° 0 mm 2 mps 756 mmHg 81%
    02:00 +13°C° 0 mm 2 mps 757 mmHg 82%
    03:00 +12°C° 0 mm 2 mps 757 mmHg 84%
    04:00 +12°C° 0 mm 2 mps 757 mmHg 83%
    05:00 +13°C° 0 mm 2 mps 757 mmHg 83%
    06:00 +12°C° 0 mm 3 mps 757 mmHg 83%
    07:00 +13°C° 0 mm 3 mps 757 mmHg 76%
    08:00 +16°C° 0 mm 3 mps 758 mmHg 69%
    09:00 +17°C° 0 mm 4 mps 758 mmHg 62%
    10:00 +18°C° 0 mm 4 mps 758 mmHg 59%
    11:00 +19°C° 0 mm 4 mps 758 mmHg 56%
    12:00 +20°C° 0 mm 4 mps 757 mmHg 53%
    13:00 +20°C° 0 mm 4 mps 757 mmHg 53%
    14:00 +20°C° 0 mm 4 mps 757 mmHg 53%
    15:00 +20°C° 0 mm 4 mps 757 mmHg 53%
    16:00 +19°C° 0 mm 3 mps 757 mmHg 57%
    17:00 +19°C° 0 mm 3 mps 757 mmHg 61%
    18:00 +18°C° 0 mm 2 mps 757 mmHg 65%
    19:00 +17°C° 0 mm 2 mps 757 mmHg 68%
    20:00 +16°C° 0 mm 2 mps 757 mmHg 72%
    21:00 +14°C° 0 mm 2 mps 757 mmHg 75%
    22:00 +14°C° 0 mm 2 mps 757 mmHg 77%
    23:00 +13°C° 0 mm 2 mps 758 mmHg 80%

    Mañana, 19 Agosto, Domingo

    Tiempo Temperatura Precipitaciones Viento Presión Humedad
    00:00 +13°C° 0 mm 2 mps 758 mmHg 82%
    01:00 +12°C° 0 mm 2 mps 758 mmHg 84%
    02:00 +12°C° 0 mm 2 mps 758 mmHg 86%
    03:00 +10°C° 0 mm 2 mps 758 mmHg 87%
    04:00 +12°C° 0 mm 2 mps 758 mmHg 86%
    05:00 +12°C° 0 mm 2 mps 758 mmHg 85%
    06:00 +12°C° 0 mm 2 mps 758 mmHg 84%
    07:00 +14°C° 0 mm 2 mps 758 mmHg 77%
    08:00 +16°C° 0 mm 2 mps 758 mmHg 69%
    09:00 +17°C° 0 mm 3 mps 758 mmHg 61%
    10:00 +18°C° 0 mm 3 mps 758 mmHg 57%
    11:00 +19°C° 0 mm 3 mps 758 mmHg 53%
    12:00 +20°C° 0 mm 3 mps 758 mmHg 49%
    13:00 +20°C° 0 mm 2 mps 757 mmHg 48%
    14:00 +21°C° 0 mm 2 mps 757 mmHg 47%
    15:00 +21°C° 0 mm 2 mps 757 mmHg 46%
    16:00 +20°C° 0 mm 2 mps 756 mmHg 51%
    17:00 +20°C° 0 mm 2 mps 756 mmHg 56%
    18:00 +20°C° 0 mm 1 mps 756 mmHg 60%
    19:00 +18°C° 0 mm 1 mps 756 mmHg 63%
    20:00 +16°C° 0 mm 1 mps 756 mmHg 66%
    21:00 +14°C° 0 mm 1 mps 756 mmHg 69%
    22:00 +14°C° 0 mm 1 mps 756 mmHg 70%
    23:00 +14°C° 0 mm 1 mps 756 mmHg 71%

    Pasado mañana, 20 Agosto, Lunes

    Tiempo Temperatura Precipitaciones Viento Presión Humedad
    00:00 +13°C° 0 mm 1 mps 756 mmHg 72%
    01:00 +13°C° 0 mm 1 mps 756 mmHg 73%
    02:00 +13°C° 0 mm 2 mps 756 mmHg 74%
    03:00 +13°C° 0 mm 2 mps 755 mmHg 75%
    04:00 +13°C° 0 mm 2 mps 755 mmHg 76%
    05:00 +13°C° 0 mm 2 mps 755 mmHg 77%
    06:00 +13°C° 0 mm 2 mps 755 mmHg 79%
    07:00 +15°C° 0 mm 2 mps 755 mmHg 73%
    08:00 +18°C° 0 mm 2 mps 755 mmHg 68%
    09:00 +20°C° 0 mm 2 mps 755 mmHg 62%
    10:00 +21°C° 0 mm 3 mps 755 mmHg 59%
    11:00 +22°C° 0 mm 3 mps 754 mmHg 56%
    12:00 +25°C° 0 mm 4 mps 754 mmHg 52%
    13:00 +25°C° 0 mm 4 mps 754 mmHg 52%
    14:00 +25°C° 0 mm 4 mps 753 mmHg 52%
    15:00 +26°C° 0 mm 4 mps 753 mmHg 52%
    16:00 +25°C° 0 mm 4 mps 753 mmHg 57%
    17:00 +24°C° 0 mm 3 mps 753 mmHg 62%
    18:00 +22°C° 0 mm 3 mps 752 mmHg 67%
    19:00 +21°C° 0 mm 3 mps 752 mmHg 70%
    20:00 +20°C° 0 mm 3 mps 752 mmHg 73%
    21:00 +19°C° 0 mm 3 mps 752 mmHg 76%
    22:00 +19°C° 0 mm 4 mps 752 mmHg 76%
    23:00 +19°C° 0 mm 4 mps 752 mmHg 75%

    21 Agosto, Martes

    Tiempo Temperatura Precipitaciones Viento Presión Humedad
    00:00 +19°C° 0 mm 4 mps 752 mmHg 75%
    01:00 +18°C° 0,2 mm 4 mps 752 mmHg 76%
    02:00 +18°C° 0,2 mm 4 mps 751 mmHg 77%
    03:00 +18°C° 0,2 mm 4 mps 751 mmHg 79%
    04:00 +18°C° 0 mm 4 mps 751 mmHg 79%
    05:00 +17°C° 0 mm 4 mps 751 mmHg 80%
    06:00 +17°C° 0 mm 4 mps 751 mmHg 80%
    07:00 +19°C° 0 mm 4 mps 751 mmHg 78%
    08:00 +20°C° 0 mm 4 mps 751 mmHg 76%
    09:00 +22°C° 0 mm 4 mps 751 mmHg 74%
    10:00 +23°C° 0,2 mm 4 mps 751 mmHg 70%
    11:00 +25°C° 0,2 mm 4 mps 751 mmHg 66%
    12:00 +26°C° 0,2 mm 5 mps 751 mmHg 63%
    13:00 +26°C° 0,3 mm 4 mps 751 mmHg 62%
    14:00 +26°C° 0,3 mm 4 mps 751 mmHg 61%
    15:00 +27°C° 0,3 mm 4 mps 751 mmHg 60%
    16:00 +26°C° 0,1 mm 4 mps 751 mmHg 65%
    17:00 +25°C° 0,1 mm 3 mps 751 mmHg 69%
    18:00 +24°C° 0,1 mm 3 mps 751 mmHg 74%
    19:00 +23°C° 0,7 mm 2 mps 750 mmHg 79%
    20:00 +21°C° 0,7 mm 2 mps 750 mmHg 83%
    21:00 +20°C° 0,7 mm 2 mps 750 mmHg 88%
    22:00 +19°C° 0,1 mm 3 mps 750 mmHg 89%
    23:00 +19°C° 0,1 mm 3 mps 750 mmHg 90%

    22 Agosto, Miércoles

    Tiempo Temperatura Precipitaciones Viento Presión Humedad
    00:00 +19°C° 0,1 mm 3 mps 750 mmHg 90%
    01:00 +18°C° 0,4 mm 3 mps 749 mmHg 89%
    02:00 +18°C° 0,4 mm 4 mps 749 mmHg 88%
    03:00 +18°C° 0,4 mm 4 mps 749 mmHg 87%
    04:00 +18°C° 0,1 mm 4 mps 749 mmHg 86%
    05:00 +17°C° 0,1 mm 5 mps 748 mmHg 84%
    06:00 +17°C° 0,1 mm 5 mps 748 mmHg 82%
    07:00 +20°C° 0 mm 6 mps 748 mmHg 76%
    08:00 +21°C° 0 mm 6 mps 748 mmHg 69%
    09:00 +23°C° 0 mm 7 mps 747 mmHg 63%
    10:00 +24°C° 0,1 mm 7 mps 747 mmHg 61%
    11:00 +26°C° 0,1 mm 8 mps 747 mmHg 59%
    12:00 +27°C° 0,1 mm 9 mps 746 mmHg 57%
    13:00 +26°C° 0,6 mm 8 mps 746 mmHg 62%
    14:00 +24°C° 0,6 mm 8 mps 746 mmHg 68%
    15:00 +23°C° 0,6 mm 8 mps 746 mmHg 74%
    16:00 +22°C° 0,5 mm 7 mps 746 mmHg 75%
    17:00 +22°C° 0,5 mm 6 mps 747 mmHg 75%
    18:00 +21°C° 0,5 mm 5 mps 747 mmHg 76%
    19:00 +19°C° 0 mm 4 mps 747 mmHg 77%
    20:00 +17°C° 0 mm 4 mps 748 mmHg 78%
    21:00 +15°C° 0 mm 4 mps 748 mmHg 79%
    22:00 +14°C° 0 mm 4 mps 749 mmHg 81%
    23:00 +13°C° 0 mm 3 mps 749 mmHg 83%

    23 Agosto, Jueves

    Tiempo Temperatura Precipitaciones Viento Presión Humedad
    00:00 +13°C° 0 mm 3 mps 749 mmHg 84%
    01:00 +12°C° 0 mm 3 mps 750 mmHg 85%
    02:00 +12°C° 0 mm 3 mps 750 mmHg 87%
    03:00 +12°C° 0 mm 3 mps 750 mmHg 88%
    04:00 +12°C° 0 mm 4 mps 750 mmHg 88%
    05:00 +12°C° 0 mm 4 mps 750 mmHg 88%
    06:00 +12°C° 0 mm 4 mps 750 mmHg 88%
    07:00 +13°C° 0 mm 4 mps 751 mmHg 81%
    08:00 +15°C° 0 mm 5 mps 751 mmHg 75%
    09:00 +16°C° 0 mm 5 mps 751 mmHg 69%
    10:00 +19°C° 0 mm 5 mps 751 mmHg 64%
    11:00 +20°C° 0 mm 5 mps 750 mmHg 59%
    12:00 +21°C° 0 mm 5 mps 750 mmHg 54%
    13:00 +21°C° 0 mm 4 mps 750 mmHg 53%
    14:00 +22°C° 0 mm 4 mps 750 mmHg 52%
    15:00 +22°C° 0 mm 4 mps 750 mmHg 51%
    16:00 +21°C° 0 mm 4 mps 750 mmHg 56%
    17:00 +21°C° 0 mm 3 mps 750 mmHg 61%
    18:00 +20°C° 0 mm 3 mps 749 mmHg 66%
    19:00 +19°C° 0 mm 3 mps 749 mmHg 67%
    20:00 +18°C° 0 mm 4 mps 749 mmHg 68%
    21:00 +18°C° 0 mm 4 mps 749 mmHg 69%
    22:00 +18°C° 0 mm 4 mps 748 mmHg 68%
    23:00 +18°C° 0 mm 4 mps 748 mmHg 68%
    Mostrar más